| time (UTC) | temp F | wind direction | speed knots | gust knots | rain 1hr in | rain 24hr in | rain mn in | humidity % | barometer mb |
| 20260831181607 | 61 | 172 | 0.0 | 0.9 | 0.00 | 0.17 | 0.11 | 91 | 1006.4 |
| 20260831181059 | 62 | 172 | 0.0 | 0.9 | 0.00 | 0.17 | 0.11 | 91 | 1006.2 |
| 20260831180558 | 62 | 172 | 0.0 | 0.9 | 0.00 | 0.17 | 0.11 | 91 | 1006.2 |
| 20260831180113 | 62 | 172 | 0.0 | 1.7 | 0.00 | 0.17 | 0.11 | 91 | 1006.2 |
| 20260831175558 | 62 | 172 | 0.0 | 1.7 | 0.00 | 0.18 | 0.11 | 91 | 1006.1 |
| 20260831175103 | 63 | 172 | 0.0 | 1.7 | 0.00 | 0.18 | 0.11 | 91 | 1006.2 |
| 20260831174558 | 63 | 250 | 0.0 | 1.7 | 0.00 | 0.18 | 0.11 | 90 | 1006.1 |
| 20260831174058 | 63 | 250 | 0.0 | 1.7 | 0.00 | 0.18 | 0.11 | 90 | 1006.1 |
| 20260831173558 | 63 | 250 | 0.0 | 2.6 | 0.00 | 0.18 | 0.11 | 90 | 1006.1 |
| 20260831173058 | 63 | 250 | 0.0 | 3.5 | 0.00 | 0.18 | 0.11 | 90 | 1006.0 |
| 20260831172557 | 63 | 262 | 0.9 | 3.5 | 0.00 | 0.18 | 0.11 | 89 | 1006.1 |
| 20260831172057 | 63 | 158 | 0.0 | 2.6 | 0.00 | 0.18 | 0.11 | 89 | 1006.0 |
| 20260831171557 | 63 | 208 | 0.9 | 2.6 | 0.00 | 0.18 | 0.11 | 89 | 1006.0 |
| 20260831171058 | 63 | 183 | 0.9 | 3.5 | 0.00 | 0.18 | 0.11 | 89 | 1005.9 |
| 20260831170558 | 63 | 229 | 0.0 | 4.3 | 0.00 | 0.18 | 0.11 | 88 | 1005.8 |
| 20260831170058 | 64 | 202 | 0.9 | 4.3 | 0.00 | 0.18 | 0.11 | 88 | 1005.9 |
| 20260831165556 | 64 | 200 | 0.9 | 7.0 | 0.00 | 0.20 | 0.11 | 88 | 1005.9 |
| 20260831165057 | 64 | 167 | 0.9 | 7.0 | 0.01 | 0.20 | 0.11 | 88 | 1005.9 |
| 20260831164557 | 64 | 200 | 2.6 | 7.0 | 0.01 | 0.20 | 0.11 | 88 | 1005.9 |
| 20260831164059 | 64 | 158 | 2.6 | 6.1 | 0.01 | 0.20 | 0.11 | 88 | 1005.8 |
| 20260831163556 | 64 | 275 | 1.7 | 7.8 | 0.01 | 0.20 | 0.11 | 89 | 1005.8 |
| 20260831163056 | 64 | 121 | 3.5 | 7.8 | 0.01 | 0.20 | 0.11 | 89 | 1005.9 |
| 20260831162557 | 64 | 288 | 1.7 | 7.0 | 0.01 | 0.20 | 0.11 | 90 | 1005.9 |
| 20260831162056 | 64 | 224 | 2.6 | 7.0 | 0.01 | 0.20 | 0.11 | 90 | 1005.9 |
| 20260831161555 | 63 | 225 | 2.6 | 7.8 | 0.01 | 0.20 | 0.11 | 90 | 1005.9 |
| 20260831161055 | 63 | 164 | 0.9 | 5.2 | 0.01 | 0.20 | 0.11 | 90 | 1005.9 |
| 20260831160555 | 63 | 216 | 1.7 | 5.2 | 0.01 | 0.20 | 0.11 | 90 | 1005.8 |
| 20260831160054 | 63 | 201 | 0.9 | 7.0 | 0.01 | 0.20 | 0.11 | 90 | 1005.8 |
| 20260831155556 | 63 | 234 | 2.6 | 7.0 | 0.00 | 0.20 | 0.10 | 89 | 1005.8 |
| 20260831155054 | 63 | 286 | 1.7 | 6.1 | 0.00 | 0.20 | 0.10 | 89 | 1005.8 |
| 20260831154557 | 63 | 205 | 0.9 | 9.6 | 0.00 | 0.20 | 0.10 | 89 | 1005.7 |
| 20260831154053 | 63 | 162 | 2.6 | 9.6 | 0.00 | 0.20 | 0.10 | 89 | 1005.8 |
| 20260831153554 | 64 | 196 | 2.6 | 8.7 | 0.00 | 0.20 | 0.10 | 89 | 1005.7 |
| 20260831153058 | 64 | 204 | 0.9 | 7.8 | 0.00 | 0.20 | 0.10 | 89 | 1005.8 |
| 20260831152554 | 64 | 246 | 0.9 | 7.0 | 0.00 | 0.20 | 0.10 | 89 | 1005.7 |
| 20260831152052 | 64 | 216 | 0.9 | 7.0 | 0.01 | 0.20 | 0.10 | 88 | 1005.6 |
| 20260831151604 | 64 | 188 | 1.7 | 8.7 | 0.01 | 0.20 | 0.10 | 88 | 1005.6 |
| 20260831151050 | 64 | 210 | 3.5 | 8.7 | 0.01 | 0.20 | 0.10 | 89 | 1005.7 |
| 20260831150554 | 64 | 192 | 2.6 | 7.0 | 0.01 | 0.20 | 0.10 | 91 | 1005.7 |
| 20260831150051 | 63 | 157 | 2.6 | 7.8 | 0.01 | 0.20 | 0.10 | 91 | 1005.7 |
| 20260831145550 | 63 | 207 | 1.7 | 7.8 | 0.01 | 0.21 | 0.10 | 90 | 1005.7 |
| 20260831145050 | 63 | 299 | 2.6 | 7.8 | 0.01 | 0.21 | 0.10 | 90 | 1005.7 |
| 20260831144550 | 63 | 175 | 1.7 | 7.8 | 0.01 | 0.21 | 0.10 | 90 | 1005.8 |
| 20260831144053 | 63 | 204 | 1.7 | 8.7 | 0.01 | 0.21 | 0.10 | 90 | 1005.7 |
| 20260831143550 | 63 | 227 | 1.7 | 8.7 | 0.01 | 0.21 | 0.10 | 90 | 1005.7 |
| 20260831143050 | 63 | 219 | 1.7 | 6.1 | 0.01 | 0.21 | 0.10 | 90 | 1005.7 |
| 20260831142550 | 63 | 263 | 1.7 | 8.7 | 0.01 | 0.21 | 0.10 | 90 | 1005.7 |
| 20260831142049 | 63 | 192 | 2.6 | 9.6 | 0.00 | 0.20 | 0.09 | 90 | 1005.8 |
| 20260831141549 | 63 | 243 | 2.6 | 6.1 | 0.00 | 0.20 | 0.09 | 91 | 1005.8 |
| 20260831141049 | 63 | 186 | 1.7 | 5.2 | 0.00 | 0.20 | 0.09 | 92 | 1005.8 |
| 20260831140552 | 63 | 175 | 2.6 | 5.2 | 0.00 | 0.20 | 0.09 | 92 | 1005.8 |
| 20260831140055 | 63 | 178 | 0.9 | 6.1 | 0.00 | 0.20 | 0.09 | 92 | 1005.9 |
| 20260831135548 | 63 | 184 | 1.7 | 6.1 | 0.00 | 0.22 | 0.09 | 92 | 1005.8 |
| 20260831135051 | 63 | 117 | 2.6 | 6.1 | 0.00 | 0.22 | 0.09 | 92 | 1005.8 |
| 20260831134548 | 63 | 173 | 2.6 | 7.8 | 0.00 | 0.22 | 0.09 | 92 | 1005.8 |
| 20260831134047 | 63 | 172 | 4.3 | 7.8 | 0.00 | 0.22 | 0.09 | 93 | 1005.8 |
| 20260831133547 | 63 | 167 | 1.7 | 7.0 | 0.00 | 0.22 | 0.09 | 93 | 1005.8 |
| 20260831133049 | 63 | 126 | 2.6 | 6.1 | 0.00 | 0.22 | 0.09 | 94 | 1005.7 |
| 20260831132547 | 63 | 150 | 2.6 | 5.2 | 0.00 | 0.22 | 0.09 | 94 | 1005.7 |
| 20260831132047 | 63 | 209 | 1.7 | 6.1 | 0.00 | 0.22 | 0.09 | 95 | 1005.7 |
| 20260831131545 | 63 | 169 | 1.7 | 6.1 | 0.00 | 0.22 | 0.09 | 95 | 1005.7 |
| 20260831131045 | 63 | 207 | 2.6 | 4.3 | 0.00 | 0.22 | 0.09 | 96 | 1005.7 |
| 20260831130545 | 62 | 173 | 1.7 | 4.3 | 0.00 | 0.22 | 0.09 | 96 | 1005.7 |
| 20260831130049 | 62 | 130 | 0.9 | 4.3 | 0.00 | 0.22 | 0.09 | 96 | 1005.7 |
| 20260831125545 | 61 | 253 | 0.9 | 3.5 | 0.00 | 0.23 | 0.09 | 96 | 1005.7 |
| 20260831125045 | 61 | 170 | 0.9 | 4.3 | 0.00 | 0.23 | 0.09 | 96 | 1005.8 |
| 20260831124551 | 60 | 216 | 0.9 | 2.6 | 0.00 | 0.23 | 0.09 | 96 | 1005.9 |
| 20260831124045 | 60 | 176 | 0.9 | 2.6 | 0.00 | 0.23 | 0.09 | 95 | 1005.9 |
| 20260831123545 | 60 | 186 | 0.0 | 2.6 | 0.00 | 0.23 | 0.09 | 95 | 1006.0 |
| 20260831123045 | 60 | 219 | 0.0 | 1.7 | 0.00 | 0.23 | 0.09 | 95 | 1006.0 |
| 20260831122547 | 60 | 219 | 0.0 | 1.7 | 0.00 | 0.23 | 0.09 | 95 | 1005.9 |
| 20260831122045 | 59 | 219 | 0.0 | 1.7 | 0.00 | 0.23 | 0.09 | 96 | 1005.9 |
| 20260831121546 | 59 | 219 | 0.0 | 2.6 | 0.01 | 0.23 | 0.09 | 95 | 1006.0 |
| 20260831121044 | 59 | 182 | 0.0 | 2.6 | 0.01 | 0.23 | 0.09 | 95 | 1006.0 |
| 20260831120543 | 59 | 182 | 0.9 | 2.6 | 0.01 | 0.23 | 0.09 | 94 | 1006.0 |
| 20260831120044 | 59 | 212 | 0.0 | 2.6 | 0.01 | 0.23 | 0.09 | 94 | 1006.0 |
| 20260831115544 | 59 | 213 | 0.9 | 2.6 | 0.01 | 0.24 | 0.09 | 94 | 1006.0 |
| 20260831115043 | 59 | 212 | 0.0 | 2.6 | 0.01 | 0.24 | 0.09 | 94 | 1006.0 |
| 20260831114544 | 59 | 212 | 0.0 | 2.6 | 0.01 | 0.24 | 0.09 | 94 | 1006.0 |
| 20260831114043 | 59 | 213 | 0.9 | 2.6 | 0.01 | 0.24 | 0.09 | 94 | 1006.0 |
| 20260831113543 | 59 | 261 | 0.9 | 2.6 | 0.01 | 0.24 | 0.09 | 93 | 1005.9 |
| 20260831113044 | 60 | 194 | 0.9 | 5.2 | 0.01 | 0.24 | 0.09 | 93 | 1005.9 |
| 20260831112542 | 60 | 200 | 1.7 | 5.2 | 0.01 | 0.24 | 0.09 | 93 | 1006.0 |
| 20260831112047 | 61 | 178 | 0.0 | 3.5 | 0.01 | 0.24 | 0.09 | 93 | 1005.7 |
| 20260831111543 | 61 | 215 | 0.9 | 10.4 | 0.00 | 0.24 | 0.09 | 92 | 1005.5 |
| 20260831111041 | 62 | 165 | 3.5 | 10.4 | 0.01 | 0.24 | 0.09 | 92 | 1005.7 |
| 20260831110541 | 63 | 210 | 5.2 | 10.4 | 0.01 | 0.24 | 0.09 | 92 | 1005.8 |
| 20260831110045 | 64 | 190 | 3.5 | 8.7 | 0.01 | 0.24 | 0.09 | 93 | 1005.8 |
| 20260831105541 | 64 | 190 | 3.5 | 7.0 | 0.01 | 0.26 | 0.09 | 92 | 1005.8 |
| 20260831105041 | 64 | 218 | 2.6 | 5.2 | 0.01 | 0.26 | 0.09 | 92 | 1005.8 |
| 20260831104558 | 65 | 147 | 1.7 | 7.8 | 0.01 | 0.26 | 0.09 | 92 | 1005.7 |
| 20260831104040 | 65 | 188 | 2.6 | 7.8 | 0.01 | 0.26 | 0.09 | 92 | 1005.7 |
| 20260831103543 | 65 | 136 | 2.6 | 8.7 | 0.01 | 0.26 | 0.09 | 91 | 1005.7 |
| 20260831103039 | 65 | 194 | 3.5 | 8.7 | 0.01 | 0.26 | 0.09 | 90 | 1005.7 |
| 20260831102538 | 66 | 158 | 1.7 | 7.0 | 0.01 | 0.26 | 0.09 | 92 | 1005.8 |
| 20260831102037 | 65 | 149 | 3.5 | 9.6 | 0.01 | 0.26 | 0.09 | 92 | 1005.9 |
| 20260831101536 | 65 | 180 | 3.5 | 9.6 | 0.01 | 0.26 | 0.09 | 92 | 1005.9 |
| 20260831101035 | 65 | 182 | 2.6 | 9.6 | 0.00 | 0.25 | 0.08 | 93 | 1006.0 |
| 20260831100534 | 64 | 203 | 4.3 | 9.6 | 0.00 | 0.25 | 0.08 | 94 | 1005.9 |
| 20260831100038 | 64 | 186 | 3.5 | 9.6 | 0.00 | 0.25 | 0.08 | 94 | 1006.0 |
| 20260831095532 | 64 | 187 | 2.6 | 7.8 | 0.00 | 0.28 | 0.08 | 94 | 1006.0 |
| 20260831095031 | 64 | 197 | 2.6 | 6.1 | 0.00 | 0.28 | 0.08 | 95 | 1006.0 |
| 20260831094538 | 64 | 196 | 1.7 | 10.4 | 0.00 | 0.28 | 0.08 | 96 | 1006.1 |
| 20260831094029 | 63 | 95 | 2.6 | 9.6 | 0.00 | 0.28 | 0.08 | 96 | 1006.1 |
| 20260831093528 | 63 | 196 | 5.2 | 9.6 | 0.00 | 0.28 | 0.08 | 95 | 1006.3 |
| 20260831093032 | 63 | 204 | 3.5 | 6.1 | 0.00 | 0.28 | 0.08 | 95 | 1006.2 |
| 20260831092526 | 63 | 141 | 1.7 | 8.7 | 0.01 | 0.28 | 0.08 | 95 | 1006.2 |
| 20260831092027 | 63 | 178 | 3.5 | 7.8 | 0.01 | 0.28 | 0.08 | 95 | 1006.3 |
| 20260831091525 | 63 | 188 | 2.6 | 8.7 | 0.01 | 0.28 | 0.08 | 96 | 1006.3 |
| 20260831091024 | 63 | 174 | 2.6 | 8.7 | 0.01 | 0.28 | 0.08 | 96 | 1006.5 |
| 20260831090524 | 63 | 203 | 3.5 | 8.7 | 0.01 | 0.28 | 0.08 | 96 | 1006.5 |
| 20260831090023 | 63 | 162 | 2.6 | 7.0 | 0.01 | 0.28 | 0.08 | 97 | 1006.6 |
| 20260831085523 | 62 | 138 | 2.6 | 7.0 | 0.01 | 0.30 | 0.08 | 96 | 1006.6 |
| 20260831085021 | 62 | 153 | 1.7 | 5.2 | 0.01 | 0.30 | 0.08 | 96 | 1006.7 |
| 20260831084533 | 62 | 131 | 1.7 | 8.7 | 0.01 | 0.30 | 0.08 | 96 | 1006.6 |
| 20260831084020 | 61 | 186 | 2.6 | 8.7 | 0.01 | 0.30 | 0.08 | 96 | 1006.7 |
| 20260831083520 | 61 | 202 | 1.7 | 7.8 | 0.01 | 0.30 | 0.08 | 96 | 1006.7 |
| 20260831083035 | 61 | 192 | 1.7 | 5.2 | 0.00 | 0.28 | 0.07 | 96 | 1006.7 |
| 20260831082518 | 61 | 155 | 0.9 | 7.8 | 0.00 | 0.28 | 0.07 | 95 | 1006.7 |
| 20260831082018 | 62 | 188 | 2.6 | 8.7 | 0.00 | 0.28 | 0.07 | 95 | 1006.8 |
| 20260831081517 | 62 | 178 | 1.7 | 7.8 | 0.00 | 0.28 | 0.07 | 95 | 1006.7 |
| 20260831081019 | 62 | 219 | 3.5 | 8.7 | 0.00 | 0.28 | 0.07 | 95 | 1006.8 |
| 20260831080516 | 62 | 198 | 2.6 | 8.7 | 0.00 | 0.28 | 0.07 | 95 | 1006.8 |
| 20260831080026 | 62 | 196 | 2.6 | 6.1 | 0.01 | 0.28 | 0.07 | 95 | 1006.9 |
| 20260831075516 | 62 | 192 | 2.6 | 6.1 | 0.01 | 0.31 | 0.07 | 95 | 1006.9 |
| 20260831075016 | 62 | 187 | 3.5 | 6.1 | 0.01 | 0.31 | 0.07 | 95 | 1006.9 |
| 20260831074517 | 62 | 179 | 1.7 | 7.0 | 0.01 | 0.31 | 0.07 | 95 | 1007.0 |
| 20260831074017 | 62 | 216 | 2.6 | 7.8 | 0.01 | 0.31 | 0.07 | 95 | 1006.9 |
| 20260831073515 | 62 | 178 | 2.6 | 7.8 | 0.01 | 0.31 | 0.07 | 95 | 1006.9 |
| 20260831073019 | 62 | 194 | 1.7 | 7.0 | 0.01 | 0.31 | 0.07 | 96 | 1006.8 |
| 20260831072513 | 62 | 200 | 2.6 | 7.0 | 0.01 | 0.31 | 0.07 | 96 | 1007.0 |
| 20260831072013 | 62 | 182 | 1.7 | 6.1 | 0.01 | 0.31 | 0.07 | 96 | 1007.0 |
| 20260831071512 | 61 | 178 | 0.9 | 4.3 | 0.01 | 0.31 | 0.07 | 97 | 1007.0 |
| 20260831071011 | 61 | 188 | 1.7 | 4.3 | 0.01 | 0.31 | 0.07 | 96 | 1007.1 |
| 20260831070510 | 61 | 186 | 1.7 | 4.3 | 0.01 | 0.31 | 0.07 | 97 | 1007.0 |
| 20260831070011 | 61 | 273 | 0.9 | 4.3 | 0.00 | 0.30 | 0.06 | 97 | 1007.0 |
| 20260831065510 | 61 | 173 | 1.7 | 4.3 | 0.00 | 0.31 | 0.06 | 97 | 1007.0 |
| 20260831065011 | 61 | 177 | 0.9 | 4.3 | 0.00 | 0.31 | 0.06 | 97 | 1007.1 |
| 20260831064509 | 61 | 169 | 0.0 | 2.6 | 0.00 | 0.31 | 0.06 | 97 | 1007.0 |
| 20260831064009 | 61 | 213 | 0.9 | 5.2 | 0.00 | 0.31 | 0.06 | 97 | 1007.1 |
| 20260831063508 | 61 | 186 | 1.7 | 5.2 | 0.00 | 0.31 | 0.06 | 97 | 1007.1 |
| 20260831063008 | 60 | 198 | 1.7 | 5.2 | 0.00 | 0.31 | 0.06 | 98 | 1007.2 |
| 20260831062507 | 60 | 205 | 0.9 | 6.1 | 0.00 | 0.31 | 0.06 | 97 | 1007.1 |
| 20260831062009 | 60 | 200 | 1.7 | 3.5 | 0.01 | 0.31 | 0.06 | 98 | 1007.2 |
| 20260831061504 | 60 | 202 | 0.0 | 2.6 | 0.01 | 0.31 | 0.06 | 98 | 1007.2 |
| 20260831061004 | 60 | 202 | 0.9 | 3.5 | 0.01 | 0.31 | 0.06 | 98 | 1007.3 |
| 20260831060502 | 59 | 202 | 0.9 | 3.5 | 0.01 | 0.31 | 0.06 | 98 | 1007.3 |
| 20260831055559 | 59 | 196 | 0.0 | 2.6 | 0.01 | 0.31 | 0.06 | 98 | 1007.2 |
| 20260831055058 | 58 | 196 | 0.0 | 2.6 | 0.01 | 0.31 | 0.06 | 98 | 1007.3 |
| 20260831054558 | 57 | 227 | 0.0 | 0.9 | 0.01 | 0.31 | 0.06 | 98 | 1007.3 |
| 20260831054055 | 56 | 227 | 0.0 | 0.0 | 0.01 | 0.31 | 0.06 | 98 | 1007.3 |
| 20260831053557 | 55 | 227 | 0.0 | 0.0 | 0.01 | 0.31 | 0.06 | 97 | 1007.3 |
| 20260831053053 | 55 | 227 | 0.0 | 0.0 | 0.01 | 0.31 | 0.06 | 97 | 1007.4 |
| 20260831052553 | 55 | 227 | 0.0 | 0.0 | 0.01 | 0.31 | 0.06 | 97 | 1007.4 |
| 20260831052051 | 55 | 227 | 0.0 | 0.0 | 0.00 | 0.31 | 0.06 | 97 | 1007.4 |
| 20260831051554 | 55 | 227 | 0.0 | 0.0 | 0.01 | 0.31 | 0.06 | 97 | 1007.5 |
| 20260831051050 | 55 | 227 | 0.0 | 0.0 | 0.01 | 0.31 | 0.06 | 97 | 1007.5 |
| 20260831050549 | 55 | 227 | 0.0 | 0.0 | 0.01 | 0.31 | 0.06 | 97 | 1007.5 |
| 20260831050049 | 55 | 227 | 0.0 | 0.0 | 0.01 | 0.31 | 0.06 | 97 | 1007.6 |
| 20260831045548 | 55 | 227 | 0.0 | 0.0 | 0.01 | 0.31 | 0.06 | 97 | 1007.6 |
| 20260831045048 | 55 | 227 | 0.0 | 0.9 | 0.01 | 0.31 | 0.06 | 97 | 1007.6 |
| 20260831044554 | 55 | 227 | 0.0 | 0.9 | 0.01 | 0.31 | 0.06 | 97 | 1007.6 |
| 20260831044047 | 55 | 227 | 0.0 | 0.0 | 0.01 | 0.31 | 0.06 | 97 | 1007.6 |
| 20260831043546 | 55 | 227 | 0.0 | 0.0 | 0.01 | 0.31 | 0.06 | 97 | 1007.5 |
| 20260831043046 | 55 | 227 | 0.0 | 0.0 | 0.01 | 0.31 | 0.06 | 97 | 1007.5 |
| 20260831042549 | 55 | 227 | 0.0 | 0.0 | 0.01 | 0.31 | 0.06 | 97 | 1007.5 |
| 20260831042045 | 55 | 227 | 0.0 | 0.0 | 0.01 | 0.31 | 0.06 | 97 | 1007.6 |
| 20260831041551 | 55 | 227 | 0.0 | 0.0 | 0.00 | 0.30 | 0.05 | 96 | 1007.6 |
| 20260831041048 | 55 | 227 | 0.0 | 0.0 | 0.00 | 0.30 | 0.05 | 96 | 1007.6 |
| 20260831040544 | 55 | 227 | 0.0 | 0.0 | 0.00 | 0.30 | 0.05 | 96 | 1007.6 |
| 20260831040043 | 55 | 227 | 0.0 | 0.0 | 0.00 | 0.30 | 0.05 | 96 | 1007.6 |
| 20260831035546 | 55 | 227 | 0.0 | 0.0 | 0.00 | 0.30 | 0.05 | 96 | 1007.6 |
| 20260831035042 | 55 | 227 | 0.0 | 0.0 | 0.00 | 0.30 | 0.05 | 96 | 1007.6 |
| 20260831034542 | 55 | 227 | 0.0 | 0.0 | 0.00 | 0.30 | 0.05 | 96 | 1007.6 |
| 20260831034042 | 55 | 227 | 0.0 | 0.0 | 0.01 | 0.30 | 0.05 | 96 | 1007.7 |
| 20260831033542 | 56 | 227 | 0.0 | 0.0 | 0.01 | 0.30 | 0.05 | 96 | 1007.7 |
| 20260831033042 | 56 | 227 | 0.0 | 0.0 | 0.01 | 0.30 | 0.05 | 96 | 1007.7 |
| 20260831032541 | 56 | 227 | 0.0 | 0.0 | 0.01 | 0.30 | 0.05 | 96 | 1007.7 |
| 20260831032040 | 56 | 227 | 0.0 | 0.0 | 0.01 | 0.30 | 0.05 | 96 | 1007.7 |
| 20260831031540 | 56 | 227 | 0.0 | 0.0 | 0.01 | 0.30 | 0.05 | 97 | 1007.7 |
| 20260831031043 | 56 | 227 | 0.0 | 0.9 | 0.01 | 0.30 | 0.05 | 97 | 1007.8 |
| 20260831030541 | 56 | 227 | 0.0 | 0.0 | 0.01 | 0.30 | 0.05 | 97 | 1007.8 |
| 20260831030039 | 56 | 227 | 0.0 | 1.7 | 0.02 | 0.30 | 0.05 | 97 | 1007.9 |
| 20260831025538 | 56 | 227 | 0.0 | 1.7 | 0.02 | 0.30 | 0.05 | 96 | 1008.0 |
| 20260831025038 | 56 | 227 | 0.0 | 0.0 | 0.02 | 0.30 | 0.05 | 96 | 1008.0 |
| 20260831024541 | 56 | 227 | 0.0 | 0.0 | 0.02 | 0.30 | 0.05 | 96 | 1007.9 |
| 20260831024038 | 56 | 227 | 0.0 | 0.0 | 0.01 | 0.28 | 0.04 | 96 | 1008.0 |
| 20260831023537 | 56 | 227 | 0.0 | 0.0 | 0.01 | 0.28 | 0.04 | 96 | 1007.9 |
| 20260831023138 | 56 | 227 | 0.0 | 0.0 | 0.01 | 0.28 | 0.04 | 96 | 1007.9 |
| 20260831022537 | 56 | 227 | 0.0 | 0.0 | 0.01 | 0.28 | 0.04 | 96 | 1007.9 |
| 20260831022036 | 56 | 227 | 0.0 | 0.9 | 0.01 | 0.28 | 0.04 | 96 | 1007.9 |
| 20260831021539 | 57 | 227 | 0.0 | 0.9 | 0.01 | 0.28 | 0.04 | 96 | 1007.9 |
| 20260831021038 | 57 | 227 | 0.0 | 0.0 | 0.01 | 0.28 | 0.04 | 96 | 1008.0 |
| 20260831020535 | 57 | 227 | 0.0 | 0.9 | 0.01 | 0.28 | 0.04 | 96 | 1008.0 |
| 20260831020035 | 57 | 227 | 0.0 | 1.7 | 0.00 | 0.28 | 0.03 | 96 | 1008.1 |
| 20260831015534 | 57 | 227 | 0.0 | 1.7 | 0.01 | 0.28 | 0.03 | 96 | 1008.1 |
| 20260831015034 | 57 | 227 | 0.0 | 1.7 | 0.01 | 0.28 | 0.03 | 96 | 1008.1 |
| 20260831014545 | 57 | 227 | 0.0 | 1.7 | 0.01 | 0.28 | 0.03 | 96 | 1008.1 |
| 20260831014033 | 58 | 227 | 0.0 | 0.9 | 0.01 | 0.28 | 0.03 | 96 | 1008.1 |
| 20260831013533 | 58 | 298 | 0.0 | 0.9 | 0.01 | 0.28 | 0.03 | 96 | 1008.1 |
| 20260831013040 | 58 | 298 | 0.0 | 0.9 | 0.01 | 0.28 | 0.03 | 96 | 1008.2 |
| 20260831012533 | 58 | 298 | 0.0 | 2.6 | 0.01 | 0.28 | 0.03 | 96 | 1008.1 |
| 20260831012033 | 58 | 298 | 0.0 | 2.6 | 0.01 | 0.28 | 0.03 | 96 | 1008.2 |
| 20260831011535 | 58 | 238 | 0.0 | 2.6 | 0.01 | 0.28 | 0.03 | 96 | 1008.2 |
| 20260831011032 | 58 | 199 | 0.0 | 2.6 | 0.01 | 0.28 | 0.03 | 96 | 1008.2 |
| 20260831010531 | 58 | 196 | 0.0 | 2.6 | 0.01 | 0.28 | 0.03 | 96 | 1008.3 |
| 20260831010031 | 58 | 190 | 0.0 | 2.6 | 0.01 | 0.28 | 0.03 | 96 | 1008.3 |
| 20260831005531 | 58 | 244 | 0.0 | 1.7 | 0.00 | 0.28 | 0.02 | 97 | 1008.2 |
| 20260831005033 | 58 | 234 | 0.0 | 2.6 | 0.01 | 0.28 | 0.02 | 97 | 1008.2 |
| 20260831004530 | 58 | 240 | 0.0 | 2.6 | 0.01 | 0.28 | 0.02 | 96 | 1008.2 |
| 20260831004033 | 57 | 239 | 0.0 | 1.7 | 0.01 | 0.28 | 0.02 | 96 | 1008.3 |
| 20260831003529 | 57 | 239 | 0.0 | 2.6 | 0.01 | 0.28 | 0.02 | 96 | 1008.2 |
| 20260831003028 | 57 | 239 | 0.0 | 2.6 | 0.01 | 0.28 | 0.02 | 96 | 1008.3 |
| 20260831002528 | 57 | 239 | 0.0 | 0.9 | 0.01 | 0.28 | 0.02 | 96 | 1008.3 |
| 20260831002027 | 57 | 239 | 0.0 | 0.9 | 0.01 | 0.28 | 0.02 | 96 | 1008.2 |
| 20260831001527 | 57 | 239 | 0.0 | 0.9 | 0.01 | 0.28 | 0.02 | 96 | 1008.2 |
| 20260831001028 | 57 | 239 | 0.0 | 1.7 | 0.01 | 0.28 | 0.02 | 96 | 1008.2 |
| 20260831000526 | 57 | 239 | 0.0 | 1.7 | 0.01 | 0.28 | 0.02 | 96 | 1008.1 |
| 20260831000036 | 56 | 239 | 0.0 | 0.9 | 0.01 | 0.28 | 0.02 | 96 | 1008.1 |
| 20260830235524 | 56 | 239 | 0.0 | 0.9 | 0.01 | 0.28 | 0.02 | 96 | 1008.1 |
| 20260830235023 | 56 | 239 | 0.0 | 0.9 | 0.00 | 0.27 | 0.02 | 96 | 1008.1 |
| 20260830234523 | 56 | 239 | 0.0 | 1.7 | 0.01 | 0.27 | 0.02 | 96 | 1008.1 |
| 20260830234024 | 56 | 239 | 0.0 | 1.7 | 0.01 | 0.27 | 0.02 | 96 | 1008.1 |
| 20260830233526 | 56 | 239 | 0.0 | 2.6 | 0.01 | 0.27 | 0.02 | 96 | 1008.2 |
| 20260830233029 | 56 | 239 | 0.0 | 2.6 | 0.01 | 0.27 | 0.02 | 96 | 1008.3 |
| 20260830232522 | 56 | 291 | 0.0 | 0.0 | 0.01 | 0.27 | 0.02 | 96 | 1008.3 |
| 20260830232122 | 56 | 291 | 0.0 | 0.9 | 0.02 | 0.27 | 0.02 | 96 | 1008.2 |
| 20260830231524 | 55 | 291 | 0.0 | 1.7 | 0.02 | 0.27 | 0.02 | 95 | 1008.1 |
| 20260830231021 | 55 | 291 | 0.0 | 1.7 | 0.02 | 0.27 | 0.02 | 95 | 1008.2 |
| 20260830230519 | 55 | 291 | 0.0 | 0.9 | 0.02 | 0.27 | 0.02 | 95 | 1008.2 |
| 20260830230019 | 55 | 291 | 0.0 | 0.9 | 0.02 | 0.27 | 0.02 | 95 | 1008.1 |
| 20260830225519 | 55 | 291 | 0.0 | 0.0 | 0.02 | 0.27 | 0.02 | 95 | 1008.2 |
| 20260830225019 | 55 | 291 | 0.0 | 0.0 | 0.02 | 0.27 | 0.02 | 95 | 1008.2 |
| 20260830224519 | 55 | 291 | 0.0 | 0.9 | 0.01 | 0.26 | 0.01 | 95 | 1008.2 |
| 20260830224018 | 55 | 291 | 0.0 | 0.9 | 0.01 | 0.26 | 0.01 | 95 | 1008.1 |
| 20260830223518 | 55 | 291 | 0.0 | 0.9 | 0.02 | 0.26 | 0.01 | 95 | 1008.2 |
| 20260830223018 | 55 | 291 | 0.0 | 0.9 | 0.02 | 0.26 | 0.01 | 95 | 1008.3 |
| 20260830222517 | 55 | 291 | 0.0 | 0.9 | 0.01 | 0.25 | 0.00 | 95 | 1008.2 |
| 20260830222021 | 55 | 291 | 0.0 | 0.9 | 0.01 | 0.25 | 0.00 | 94 | 1008.2 |
| 20260830221516 | 55 | 291 | 0.0 | 0.0 | 0.01 | 0.25 | 0.00 | 94 | 1008.2 |
| 20260830221016 | 55 | 291 | 0.0 | 0.0 | 0.01 | 0.25 | 0.00 | 94 | 1008.2 |
| 20260830220515 | 56 | 291 | 0.0 | 0.0 | 0.02 | 0.25 | 0.00 | 94 | 1008.2 |
| 20260830220015 | 56 | 291 | 0.0 | 0.9 | 0.02 | 0.25 | 0.00 | 94 | 1008.1 |
| 20260830215514 | 56 | 291 | 0.0 | 0.9 | 0.02 | 0.25 | 0.25 | 94 | 1008.2 |
| 20260830215015 | 56 | 291 | 0.0 | 0.0 | 0.02 | 0.25 | 0.25 | 93 | 1008.2 |
| 20260830214512 | 56 | 291 | 0.0 | 0.0 | 0.02 | 0.25 | 0.25 | 93 | 1008.1 |
| 20260830214011 | 57 | 291 | 0.0 | 0.0 | 0.02 | 0.25 | 0.25 | 93 | 1008.2 |
| 20260830213511 | 57 | 291 | 0.0 | 0.0 | 0.01 | 0.24 | 0.24 | 93 | 1008.2 |
| 20260830213010 | 57 | 291 | 0.0 | 0.0 | 0.01 | 0.24 | 0.24 | 93 | 1008.1 |
| 20260830212509 | 57 | 291 | 0.0 | 1.7 | 0.02 | 0.24 | 0.24 | 93 | 1008.2 |
| 20260830212009 | 57 | 291 | 0.0 | 0.9 | 0.02 | 0.24 | 0.24 | 93 | 1008.2 |
| 20260830211513 | 58 | 291 | 0.0 | 0.9 | 0.02 | 0.24 | 0.24 | 93 | 1008.1 |
| 20260830211008 | 58 | 291 | 0.0 | 0.9 | 0.02 | 0.24 | 0.24 | 93 | 1008.1 |
| 20260830210506 | 58 | 291 | 0.0 | 3.5 | 0.01 | 0.24 | 0.24 | 93 | 1008.1 |
| 20260830210006 | 58 | 291 | 0.0 | 3.5 | 0.01 | 0.24 | 0.24 | 93 | 1008.1 |
| 20260830205510 | 58 | 215 | 0.0 | 2.6 | 0.01 | 0.24 | 0.24 | 94 | 1008.1 |
| 20260830205005 | 58 | 240 | 0.0 | 2.6 | 0.02 | 0.24 | 0.24 | 93 | 1008.1 |
| 20260830204506 | 58 | 294 | 0.0 | 2.6 | 0.02 | 0.24 | 0.24 | 93 | 1008.0 |
| 20260830204005 | 58 | 148 | 0.0 | 1.7 | 0.02 | 0.24 | 0.24 | 93 | 1008.1 |
| 20260830203505 | 58 | 214 | 0.0 | 0.9 | 0.02 | 0.24 | 0.24 | 94 | 1008.0 |
| 20260830203006 | 58 | 214 | 0.0 | 1.7 | 0.02 | 0.24 | 0.24 | 94 | 1008.0 |
| 20260830202505 | 58 | 214 | 0.0 | 1.7 | 0.01 | 0.23 | 0.23 | 94 | 1008.0 |
| 20260830202004 | 58 | 214 | 0.0 | 1.7 | 0.01 | 0.23 | 0.23 | 93 | 1007.9 |
| 20260830201505 | 58 | 214 | 0.0 | 3.5 | 0.01 | 0.23 | 0.23 | 93 | 1007.9 |
| 20260830201002 | 58 | 214 | 0.0 | 3.5 | 0.01 | 0.23 | 0.23 | 93 | 1007.9 |
| 20260830200501 | 58 | 212 | 0.0 | 3.5 | 0.02 | 0.23 | 0.23 | 93 | 1007.7 |
| 20260830200001 | 58 | 194 | 0.0 | 3.5 | 0.02 | 0.23 | 0.23 | 93 | 1007.7 |
| 20260830195604 | 58 | 250 | 0.0 | 1.7 | 0.02 | 0.23 | 0.23 | 93 | 1007.7 |
| 20260830195106 | 58 | 241 | 0.0 | 2.6 | 0.01 | 0.22 | 0.22 | 93 | 1007.6 |
| 20260830194603 | 59 | 289 | 0.9 | 2.6 | 0.02 | 0.22 | 0.22 | 93 | 1007.5 |
| 20260830194102 | 59 | 324 | 0.0 | 0.9 | 0.02 | 0.22 | 0.22 | 93 | 1007.5 |
| 20260830193557 | 59 | 325 | 0.0 | 1.7 | 0.02 | 0.22 | 0.22 | 93 | 1007.5 |
| 20260830193057 | 59 | 324 | 0.0 | 1.7 | 0.02 | 0.22 | 0.22 | 93 | 1007.5 |
| 20260830192556 | 59 | 325 | 0.0 | 1.7 | 0.02 | 0.22 | 0.22 | 93 | 1007.4 |
| 20260830192101 | 59 | 331 | 0.0 | 2.6 | 0.02 | 0.22 | 0.22 | 93 | 1007.4 |
| 20260830191556 | 59 | 277 | 0.0 | 2.6 | 0.02 | 0.22 | 0.22 | 92 | 1007.3 |
| 20260830191054 | 60 | 320 | 0.0 | 2.6 | 0.02 | 0.22 | 0.22 | 92 | 1007.2 |
| 20260830190554 | 60 | 271 | 0.0 | 2.6 | 0.01 | 0.21 | 0.21 | 92 | 1007.2 |
| 20260830190054 | 60 | 272 | 0.0 | 4.3 | 0.02 | 0.21 | 0.21 | 92 | 1007.1 |
| 20260830185553 | 60 | 261 | 0.9 | 4.3 | 0.02 | 0.21 | 0.21 | 92 | 1007.1 |
| 20260830185054 | 60 | 208 | 0.0 | 4.3 | 0.02 | 0.21 | 0.21 | 91 | 1007.0 |
| 20260830184552 | 60 | 81 | 1.7 | 4.3 | 0.01 | 0.20 | 0.20 | 91 | 1006.9 |
| 20260830184051 | 60 | 318 | 0.0 | 4.3 | 0.02 | 0.20 | 0.20 | 91 | 1006.8 |
| 20260830183550 | 61 | 19 | 1.7 | 4.3 | 0.02 | 0.20 | 0.20 | 91 | 1006.7 |
| 20260830183050 | 61 | 218 | 0.9 | 7.8 | 0.02 | 0.20 | 0.20 | 91 | 1006.6 |
| 20260830182549 | 61 | 243 | 1.7 | 7.8 | 0.02 | 0.20 | 0.20 | 91 | 1006.5 |
| 20260830182049 | 61 | 292 | 1.7 | 5.2 | 0.02 | 0.20 | 0.20 | 91 | 1006.5 |